Location: Chicago
(41.8500°N, 87.6500°W)
Time: 13:35:55
(UTC-05:00)

ISS - Visible Passes

Search period start: 21 May 2018 00:00
Search period end: 31 May 2018 00:00
Orbit: 402 x 407 km, 51.6° (Epoch: 22 May)

Date Brightness Start Highest point End Pass type
(mag) Time Alt. Az. Time Alt. Az. Time Alt. Az.
21 May -0.6 01:33:09 10° NNW 01:35:11 15° N 01:37:13 10° NE visible
21 May -2.1 03:09:22 10° NW 03:12:24 34° NNE 03:15:24 10° E visible
21 May -3.1 04:45:53 10° WNW 04:48:51 32° SW 04:51:48 10° SSE visible
21 May -3.9 21:25:28 10° SW 21:28:41 61° SE 21:31:55 10° ENE visible
21 May -1.4 23:02:38 10° WNW 23:05:22 24° NNW 23:08:08 10° NE visible
22 May -0.6 00:40:46 10° NW 00:42:43 15° N 00:44:39 10° NE visible
22 May -1.4 02:17:18 10° NW 02:20:03 24° NNE 02:22:46 10° ENE visible
22 May -3.9 03:53:31 10° WNW 03:56:46 64° SW 03:59:59 10° SE visible
22 May -2.1 22:10:00 10° W 22:13:02 35° NNW 22:16:04 10° NE visible
22 May -0.6 23:48:10 10° NW 23:50:13 15° N 23:52:17 10° NNE visible
23 May -1.0 01:25:13 10° NNW 01:27:38 19° NNE 01:30:02 10° ENE visible
23 May -3.6 03:01:19 10° NW 03:04:34 68° NNE 03:07:49 10° ESE visible
23 May -2.0 04:38:54 10° W 04:40:41 14° SW 04:42:28 10° SSW visible
23 May -3.1 21:17:31 10° WSW 21:20:44 57° NNW 21:23:58 10° NE visible
23 May -0.8 22:55:26 10° WNW 22:57:45 18° NNW 23:00:04 10° NNE visible
24 May -0.7 00:33:03 10° NNW 00:35:09 16° N 00:37:16 10° NE visible
24 May -1.3 02:09:12 10° NW 02:10:09 17° NW 02:10:09 17° NW visible
24 May -1.2 22:02:39 10° WNW 22:05:17 22° NNW 22:07:55 10° NE visible
24 May -0.6 23:40:42 10° NW 23:42:39 15° N 23:44:37 10° NE visible
25 May -1.2 01:17:06 10° NW 01:18:34 20° NNW 01:18:34 20° NNW visible
25 May -1.7 21:09:56 10° W 21:12:53 30° NNW 21:15:50 10° NE visible
25 May -0.7 22:48:08 10° NW 22:50:07 15° N 22:52:07 10° NNE visible
26 May -1.2 00:25:00 10° NW 00:27:30 20° NNE 00:27:34 20° NNE visible
26 May -0.8 21:55:23 10° NW 21:57:35 17° N 21:59:48 10° NNE visible
26 May -0.9 23:32:48 10° NNW 23:35:01 17° N 23:36:44 12° NE visible
27 May -0.9 01:08:55 10° NW 01:09:21 13° NW 01:09:21 13° NW visible
27 May -1.0 21:02:33 10° WNW 21:05:05 20° NNW 21:07:36 10° NE visible
27 May -0.8 22:40:29 10° NNW 22:42:28 15° N 22:44:29 10° NE visible
28 May -1.4 00:16:46 10° NW 00:18:37 24° NNW 00:18:37 24° NNW visible
28 May -0.8 21:47:57 10° NW 21:49:55 15° N 21:51:52 10° NE visible
28 May -1.6 23:24:37 10° NW 23:27:16 22° NNE 23:27:55 21° NE visible
29 May -0.9 20:55:13 10° NW 20:57:20 16° N 20:59:28 10° NNE visible
29 May -1.1 22:32:26 10° NNW 22:34:45 18° NNE 22:37:04 10° ENE visible
30 May -1.5 00:08:31 10° NW 00:09:53 22° NW 00:09:53 22° NW visible
30 May -1.0 21:40:07 10° NNW 21:42:11 15° N 21:44:15 10° NE visible
30 May -2.4 23:16:20 10° NW 23:19:15 35° NNE 23:19:15 35° NNE visible
